Regional Weather Roundup
Issued by NWS

Home | Current Version | Previous Version | Text Only | Print | Product List | Glossary Off
Versions: 1 2 3 4 5 6 7 8 9 10 11 12 13 14 15 16 17 18 19 20 21 22 23 24 25 26 27 28 29 30 31 32 33 34 35 36 37 38 39 40 41 42 43 44 45 46 47 48 49 50

000
ASUS43 KMKX 242121
RWRWI

WISCONSIN REGIONAL WEATHER ROUNDUP
NATIONAL WEATHER SERVICE MILWAUKEE/SULLIVAN WI
400 PM CDT THU APR 24 2014

NOTE: "FAIR" INDICATES FEW OR NO CLOUDS BELOW 12,000 FEET WITH NO
SIGNIFICANT WEATHER AND/OR OBSTRUCTIONS TO VISIBILITY.

WIZ001-002-006>008-014>016-023>028-242200-
NORTHWEST WISCONSIN

CITY           SKY/WX    TMP DP  RH WIND       PRES   REMARKS
SUPERIOR ARPT  LGT SNOW  32  32 100 NE10G16   29.78F WCI  24
ASHLAND        LGT SNOW  33  33 100 NE10      29.80F FOG     WCI  25
HAYWARD        LGT RAIN  36 N/A N/A VRB6      29.73F WCI  31
SIREN          DRIZZLE   39  39  97 E5        29.71F
RICE LAKE      LGT RAIN  41  40  94 SE9       29.72F
LADYSMITH      LGT RAIN  41  39  92 E10       29.74F
EAU CLAIRE     LGT RAIN  43  41  93 SE5       29.68F FOG
MENOMONIE      DRIZZLE   42  42  99 SE9       29.70F
NEW RICHMOND   DRIZZLE   42  42 100 SE5       29.68F
OSCEOLA        MIX PCPN  43  43  99 E6        29.71F
$$

WIZ003>005-009-010-017-018-242200-
NORTH CENTRAL WISCONSIN

CITY           SKY/WX    TMP DP  RH WIND       PRES   REMARKS
WOODRUFF       LGT SNOW  37  34  92 SE13G20   29.79F WCI  28
RHINELANDER    LGT RAIN  35  33  92 E16G24    29.80F WCI  25
EAGLE RIVER    LGT SNOW  33  33 100 E13       29.83F WCI  24
LAND O LAKES   SNOW      34  33  97 E9        29.86F VSB 1/2 WCI  26
PHILLIPS       LGT RAIN  36  35  94 E10G23    29.75F WCI  29
TOMAHAWK       LGT RAIN  37  35  92 E7        29.77F WCI  31
MEDFORD        LGT RAIN  39  38  95 SE15      29.73F WCI  31
MERRILL        RAIN      40  38  93 SE13G24   29.77F WCI  32
$$

WIZ029-030-035-036-043>047-242200-
CENTRAL WISCONSIN

CITY           SKY/WX    TMP DP  RH WIND       PRES   REMARKS
WAUSAU         LGT RAIN  41  40  96 SE20G29   29.76F FOG
MOSINEE        RAIN      39  39 100 E16G22    29.78F WCI  30
MARSHFIELD     LGT RAIN  42  38  85 SE20G28   29.72F FOG
STEVENS POINT  LGT RAIN  40  37  89 E16G28    29.76F WCI  32
WAUPACA        LGT RAIN  45  39  81 E16G26    29.80F
WAUTOMA        CLOUDY    46  39  76 E15G21    29.77F
WISC RAPIDS    LGT RAIN  43  40  89 E16       29.74F
CAMP DOUGLAS   DRIZZLE   45  45 100 E14       29.69F
$$

WIZ011>013-019>022-031-037>040-048>050-242200-
NORTHEAST WISCONSIN

CITY           SKY/WX    TMP DP  RH WIND       PRES   REMARKS
ANTIGO         RAIN      38  36  92 SE22G31   29.83R WCI  27
STURGEON BAY   CLOUDY    39  36  87 E10G16    29.91F WCI  32
GREEN BAY      CLOUDY    43  37  79 E17G26    29.87F
MANITOWOC      LGT RAIN  43  36  76 E18       29.88F
APPLETON       LGT RAIN  41  37  87 E16G24    29.84F FOG
CLINTONVILLE   LGT RAIN  41  37  87 E13G21    29.84F
OSHKOSH        LGT RAIN  45  37  73 E18G25    29.81F
$$

WIZ032>034-041-042-053>061-242200-
SOUTHWEST WISCONSIN

CITY           SKY/WX    TMP DP  RH WIND       PRES   REMARKS
LA CROSSE      LGT RAIN  46  44  93 E5        29.66F FOG
SPARTA         DRIZZLE   44  43  95 E7        29.69F
VIROQUA        CLOUDY    47  47 100 S6        29.66S
BOSCOBEL       CLOUDY    54  48  80 VRB3      29.67F
PRAIRIE DU CHI DRIZZLE   51  47  86 SE5       29.66R
PLATTEVILLE    PTSUNNY   53  47  82 SE13      29.69F
$$

WIZ056-057-062-063-064-067-068-242200-
SOUTH CENTRAL WISCONSIN

CITY           SKY/WX    TMP DP  RH WIND       PRES   REMARKS
BARABOO/DELLS  DRIZZLE   51  44  79 SE14G21   29.70F
LONE ROCK      LGT RAIN  54  47  77 SE10G22   29.69F
WATERTOWN      LGT RAIN  51  42  70 E12       29.76F
MADISON        LGT RAIN  53  46  77 SE15      29.74F
MIDDLETON      CLOUDY    53  46  77 S13G23    29.72F
MONROE         RAIN      51  51 100 SE10      29.71F
JANESVILLE     DRIZZLE   59  43  55 SE9       29.74F
$$

WIZ051-052-058>065-066-070>072-242200-
SOUTHEAST WISCONSIN

CITY           SKY/WX    TMP DP  RH WIND       PRES   REMARKS
MILWAUKEE      CLOUDY    50  31  48 SE17      29.84F
WAUKESHA       CLOUDY    52  30  43 E16G24    29.81F
MILWAUKEE/TIMM CLOUDY    52  27  37 SE13G20   29.83F
RACINE         CLOUDY    51  30  44 SE18G25   29.84F
BURLINGTON       N/A     56  33  41 MISG      29.78F
KENOSHA        CLOUDY    57  31  37 SE14G22   29.81F
FOND DU LAC    LGT RAIN  45  37  73 SE17G29   29.81F
SHEBOYGAN      LGT RAIN  43  36  76 E9        29.87F
WEST BEND      DRIZZLE   45  32  61 E12       29.83F
JUNEAU         DRIZZLE   49  35  58 E20       29.78F
$$

LSZ147-162-242200-
LAKE SUPERIOR

STATION/POSITION TIME  TEMP    WIND        PRES    WAVE
                       AIR SEA DIR/SP/G            HT/PER
                 (UTC) (F)     (DEG/KT/KT) (MB)    (FT/S)
DEVILS ISLAND    2100   33      90/ 25/ 27 1011.1F
PORT WING        2000   37      70/  7/ 10 1009.8F
SAXON HARBOR     2000           50/  3/  6 1010.5F
$$

LMZ867-665-643>646-242200-
LAKE MICHIGAN

STATION/POSITION TIME  TEMP    WIND        PRES    WAVE
                       AIR SEA DIR/SP/G            HT/PER
                 (UTC) (F)     (DEG/KT/KT) (MB)    (FT/S)
NORTHPORT PIER   2000   35      80/  2/  4 1016.3F
SISTER BAY       2053   38     100/  6/ 11   N/A
KEWAUNEE LAKESHO 2100   39      80/ 11/ 15 1013.4F
SHEBOYGAN LAKESH 2100   42      80/ 17/ 18 1012.1F
PORT WASHINGTON  2000   41      90/  6/ 11 1012.2F
MILWAUKEE LAKESH 2100   43     130/  8/ 10   N/A
KENOSHA   LAKESH 2100   45     140/  9/ 12   N/A
$$

TC  - TEMPERATURE IN CELSIUS
VSB - VISIBILITY IN STATUTE MILES
WCI - WIND CHILL INDEX
HX  - HEAT INDEX




USA.gov is the U.S. government's official web portal to all federal, state and local government web resources and services.